{"data":{"norad_id":51149,"intl_designator":"2022-005AX","name":"STARLINK-3360","alt_names":[],"object_type":"PAYLOAD","status":"ACTIVE","operator":null,"country":"US","launch_date":"2022-01-19","launch_site_code":"AFETR","launch_vehicle":null,"mission":null,"orbit_class":"UNKNOWN","rcs_meters":null,"size_class":null,"mass_kg":null,"dimensions":null,"purposes":["comms"],"wikipedia_slug":null,"has_3d_model":false,"image_url":null,"decayed_at":null,"tle_current":{"epoch":"2026-05-24T21:35:58.183872Z","epoch_age_seconds":90466,"freshness":"FRESH","line1":"1 51149U 22005AX  26144.89997898  .00000768  00000+0  66343-4 0  9999","line2":"2 51149  53.2147 326.8163 0001361  85.5602 274.5545 15.08842076240100","mean_motion":15.08842076,"eccentricity":0.0001361,"inclination_deg":53.2147,"raan_deg":326.8163,"arg_perigee_deg":85.5602,"mean_anomaly_deg":274.5545,"bstar":6.6343e-5,"rev_number":24010,"period_min":95.437423366234,"perigee_km":538.79552081258,"apogee_km":540.67856612721,"semimajor_km":6917.8740434699,"source":"CELESTRAK","updated_at":"2026-05-25T13:38:16.916413Z"}}}